This is the latest recevied weather packets stored in our database for station/object KG4LKY-5. If no packets are shown the sender has not sent any weather packets the latest 10 day(s).
| Time | Temp. | Humidity | Pressure | Rain* | Wind** | Luminosity | Snow |
|---|---|---|---|---|---|---|---|
| 1777821840 | 11.11° C | 37% | 1022.1 hPa | 0 mm | - | - | - |
| 1777821539 | 11.67° C | 37% | 1022.1 hPa | 0 mm | - | - | - |
| 1777821239 | 12.22° C | 39% | 1022.1 hPa | 0 mm | - | - | - |
| 1777820939 | 11.11° C | 41% | 1022.1 hPa | 0 mm | - | - | - |
| 1777820638 | 10.56° C | 35% | 1022.1 hPa | 0 mm | - | - | - |
| 1777820338 | 10.56° C | 35% | 1022.1 hPa | 0 mm | - | - | - |
| 1777820036 | 10.56° C | 34% | 1022.1 hPa | 0 mm | - | - | - |
| 1777819434 | 10.56° C | 37% | 1022.1 hPa | 0 mm | - | - | - |
| 1777818834 | 8.89° C | 42% | 1022.1 hPa | 0 mm | - | - | - |
| 1777818534 | 9.44° C | 42% | 1022.1 hPa | 0 mm | - | - | - |
| 1777818234 | 10° C | 38% | 1022.1 hPa | 0 mm | - | - | - |
| 1777817933 | 9.44° C | 40% | 1022.1 hPa | 0 mm | - | - | - |
| 1777817632 | 9.44° C | 48% | 1022.2 hPa | 0 mm | - | - | - |
| 1777817331 | 9.44° C | 52% | 1022.1 hPa | 0 mm | - | - | - |
| 1777816731 | 8.89° C | 64% | 1022.1 hPa | 0 mm | - | - | - |
| 1777816430 | 8.89° C | 68% | 1022.1 hPa | 0 mm | - | - | - |
| 1777815830 | 7.78° C | 76% | 1022.1 hPa | 0 mm | - | - | - |
| 1777815529 | 8.33° C | 81% | 1022.1 hPa | 0 mm | - | - | - |
| 1777815229 | 7.22° C | 86% | 1022.2 hPa | 0 mm | - | - | - |
| 1777814929 | 7.22° C | 88% | 1022.1 hPa | 0 mm | - | - | - |
| 1777814629 | 6.67° C | 97% | 1022.2 hPa | 0 mm | - | - | - |
| 1777814328 | 6.67° C | 100% | 1022.2 hPa | 0 mm | - | - | - |
| 1777814028 | 5.56° C | 100% | 1022.2 hPa | 0 mm | - | - | - |
| 1777813127 | 4.44° C | 100% | 1022.1 hPa | 0 mm | - | - | - |
| 1777812827 | 4.44° C | 100% | 1022.2 hPa | 0 mm | - | - | - |
* Rain since midnight (hover to see other rain measurements)
** Current wind speed in m/s (hover to see current wind gust speed)